| time (UTC) | temp F | wind direction | speed MPH | gust MPH | rain 1hr in | rain 24hr in | rain mn in | humidity % | barometer mb |
| 20260904181100 | 94 | 215 | 3.0 | 9.0 | 0.00 | 0.00 | 0.00 | 46 | 1017.2 |
| 20260904180555 | 94 | 247 | 1.0 | 11.0 | 0.00 | 0.00 | 0.00 | 43 | 1017.2 |
| 20260904180050 | 95 | 173 | 3.0 | 5.0 | 0.00 | 0.00 | 0.00 | 46 | 1017.2 |
| 20260904175549 | 94 | 277 | 2.0 | 7.0 | 0.00 | 0.00 | 0.00 | 45 | 1017.3 |
| 20260904175048 | 93 | 232 | 5.0 | 8.0 | 0.00 | 0.00 | 0.00 | 47 | 1017.3 |
| 20260904174543 | 94 | 171 | 5.0 | 9.0 | 0.00 | 0.00 | 0.00 | 48 | 1017.3 |
| 20260904174040 | 93 | 227 | 2.0 | 5.0 | 0.00 | 0.00 | 0.00 | 51 | 1017.1 |
| 20260904173539 | 93 | 174 | 3.0 | 10.0 | 0.00 | 0.00 | 0.00 | 49 | 1017.3 |
| 20260904173035 | 93 | 168 | 4.0 | 6.0 | 0.00 | 0.00 | 0.00 | 49 | 1017.2 |
| 20260904172531 | 92 | 206 | 3.0 | 8.0 | 0.00 | 0.00 | 0.00 | 52 | 1017.3 |
| 20260904172030 | 93 | 184 | 2.0 | 6.0 | 0.00 | 0.00 | 0.00 | 51 | 1017.2 |
| 20260904171526 | 93 | 189 | 5.0 | 7.0 | 0.00 | 0.00 | 0.00 | 49 | 1017.2 |
| 20260904171022 | 93 | 194 | 1.0 | 7.0 | 0.00 | 0.00 | 0.00 | 49 | 1017.4 |
| 20260904170517 | 93 | 195 | 3.0 | 8.0 | 0.00 | 0.00 | 0.00 | 50 | 1017.4 |
| 20260904170013 | 93 | 77 | 1.0 | 4.0 | 0.00 | 0.00 | 0.00 | 51 | 1017.2 |
| 20260904165511 | 92 | 126 | 1.0 | 4.0 | 0.00 | 0.00 | 0.00 | 52 | 1017.2 |
| 20260904165011 | 91 | 198 | 3.0 | 8.0 | 0.00 | 0.00 | 0.00 | 52 | 1017.1 |
| 20260904164506 | 91 | 153 | 3.0 | 5.0 | 0.00 | 0.00 | 0.00 | 53 | 1017.2 |
| 20260904164002 | 92 | 152 | 3.0 | 7.0 | 0.00 | 0.00 | 0.00 | 51 | 1017.2 |
| 20260904163502 | 91 | 154 | 1.0 | 7.0 | 0.00 | 0.00 | 0.00 | 55 | 1017.2 |
| 20260904163001 | 91 | 149 | 6.0 | 8.0 | 0.00 | 0.00 | 0.00 | 52 | 1017.1 |
| 20260904162457 | 90 | 204 | 3.0 | 9.0 | 0.00 | 0.00 | 0.00 | 54 | 1017.0 |
| 20260904161952 | 90 | 225 | 3.0 | 7.0 | 0.00 | 0.00 | 0.00 | 55 | 1017.0 |
| 20260904161447 | 90 | 152 | 5.0 | 10.0 | 0.00 | 0.00 | 0.00 | 55 | 1017.1 |
| 20260904160943 | 90 | 152 | 3.0 | 11.0 | 0.00 | 0.00 | 0.00 | 54 | 1017.2 |
| 20260904160437 | 89 | 179 | 0.0 | 7.0 | 0.00 | 0.00 | 0.00 | 56 | 1017.0 |
| 20260904155932 | 90 | 155 | 1.0 | 7.0 | 0.00 | 0.00 | 0.00 | 56 | 1017.0 |
| 20260904155427 | 89 | 165 | 4.0 | 7.0 | 0.00 | 0.00 | 0.00 | 55 | 1017.0 |
| 20260904154926 | 89 | 151 | 3.0 | 10.0 | 0.00 | 0.00 | 0.00 | 56 | 1017.0 |
| 20260904154420 | 89 | 172 | 3.0 | 8.0 | 0.00 | 0.00 | 0.00 | 56 | 1016.9 |
| 20260904153915 | 89 | 159 | 5.0 | 12.0 | 0.00 | 0.00 | 0.00 | 57 | 1016.9 |
| 20260904153411 | 89 | 216 | 3.0 | 7.0 | 0.00 | 0.00 | 0.00 | 57 | 1016.9 |
| 20260904152907 | 89 | 195 | 2.0 | 9.0 | 0.00 | 0.00 | 0.00 | 57 | 1016.7 |
| 20260904152403 | 89 | 186 | 4.0 | 6.0 | 0.00 | 0.00 | 0.00 | 56 | 1016.7 |
| 20260904151902 | 89 | 160 | 5.0 | 9.0 | 0.00 | 0.00 | 0.00 | 56 | 1016.9 |
| 20260904151401 | 89 | 136 | 2.0 | 8.0 | 0.00 | 0.00 | 0.00 | 57 | 1016.8 |
| 20260904150857 | 89 | 157 | 3.0 | 8.0 | 0.00 | 0.00 | 0.00 | 57 | 1016.9 |
| 20260904150352 | 89 | 204 | 1.0 | 5.0 | 0.00 | 0.00 | 0.00 | 57 | 1016.7 |
| 20260904145850 | 89 | 180 | 2.0 | 4.0 | 0.00 | 0.00 | 0.00 | 57 | 1016.8 |
| 20260904145346 | 88 | 192 | 2.0 | 7.0 | 0.00 | 0.00 | 0.00 | 59 | 1016.6 |
| 20260904144842 | 88 | 159 | 5.0 | 9.0 | 0.00 | 0.00 | 0.00 | 58 | 1016.7 |
| 20260904144337 | 88 | 183 | 2.0 | 4.0 | 0.00 | 0.00 | 0.00 | 58 | 1016.7 |
| 20260904143827 | 87 | 168 | 2.0 | 7.0 | 0.00 | 0.00 | 0.00 | 59 | 1016.8 |
| 20260904143324 | 87 | 152 | 0.0 | 8.0 | 0.00 | 0.00 | 0.00 | 60 | 1016.5 |
| 20260904142820 | 87 | 139 | 2.0 | 7.0 | 0.00 | 0.00 | 0.00 | 60 | 1016.6 |
| 20260904142316 | 87 | 154 | 3.0 | 6.0 | 0.00 | 0.00 | 0.00 | 61 | 1016.3 |
| 20260904141815 | 86 | 219 | 3.0 | 6.0 | 0.00 | 0.00 | 0.00 | 61 | 1016.3 |
| 20260904141310 | 86 | 180 | 2.0 | 4.0 | 0.00 | 0.00 | 0.00 | 62 | 1016.3 |
| 20260904140807 | 86 | 136 | 2.0 | 6.0 | 0.00 | 0.00 | 0.00 | 61 | 1016.5 |
| 20260904140302 | 86 | 158 | 3.0 | 5.0 | 0.00 | 0.00 | 0.00 | 62 | 1016.3 |
| 20260904135800 | 86 | 199 | 2.0 | 3.0 | 0.00 | 0.00 | 0.00 | 62 | 1016.1 |
| 20260904135256 | 85 | 224 | 2.0 | 6.0 | 0.00 | 0.00 | 0.00 | 63 | 1016.2 |
| 20260904134752 | 85 | 213 | 1.0 | 6.0 | 0.00 | 0.00 | 0.00 | 63 | 1015.8 |
| 20260904134251 | 85 | 192 | 1.0 | 7.0 | 0.00 | 0.00 | 0.00 | 63 | 1015.8 |
| 20260904133746 | 84 | 162 | 3.0 | 8.0 | 0.00 | 0.00 | 0.00 | 64 | 1015.7 |
| 20260904133242 | 84 | 150 | 1.0 | 4.0 | 0.00 | 0.00 | 0.00 | 64 | 1015.8 |
| 20260904132741 | 84 | 177 | 2.0 | 5.0 | 0.00 | 0.00 | 0.00 | 65 | 1015.6 |
| 20260904132237 | 83 | 147 | 2.0 | 6.0 | 0.00 | 0.00 | 0.00 | 65 | 1015.6 |
| 20260904131736 | 83 | 154 | 2.0 | 6.0 | 0.00 | 0.00 | 0.00 | 65 | 1015.5 |
| 20260904131233 | 83 | 186 | 1.0 | 3.0 | 0.00 | 0.00 | 0.00 | 65 | 1015.1 |
| 20260904130732 | 83 | 215 | 3.0 | 9.0 | 0.00 | 0.00 | 0.00 | 65 | 1015.4 |
| 20260904130231 | 83 | 201 | 2.0 | 3.0 | 0.00 | 0.00 | 0.00 | 66 | 1015.2 |
| 20260904125728 | 83 | 209 | 3.0 | 6.0 | 0.00 | 0.00 | 0.00 | 65 | 1015.2 |
| 20260904125223 | 83 | 183 | 1.0 | 3.0 | 0.00 | 0.00 | 0.00 | 65 | 1015.3 |
| 20260904124717 | 83 | 189 | 0.0 | 3.0 | 0.00 | 0.00 | 0.00 | 65 | 1015.2 |
| 20260904124214 | 83 | 160 | 2.0 | 4.0 | 0.00 | 0.00 | 0.00 | 65 | 1014.8 |
| 20260904123708 | 83 | 141 | 2.0 | 5.0 | 0.00 | 0.00 | 0.00 | 65 | 1015.0 |
| 20260904123204 | 83 | 130 | 0.0 | 3.0 | 0.00 | 0.00 | 0.00 | 65 | 1014.9 |
| 20260904122659 | 83 | 148 | 0.0 | 4.0 | 0.00 | 0.00 | 0.00 | 66 | 1014.9 |
| 20260904122153 | 82 | 196 | 0.0 | 3.0 | 0.00 | 0.00 | 0.00 | 67 | 1014.9 |
| 20260904121648 | 80 | 181 | 1.0 | 4.0 | 0.00 | 0.00 | 0.00 | 70 | 1015.0 |
| 20260904121144 | 81 | 141 | 0.0 | 3.0 | 0.00 | 0.00 | 0.00 | 70 | 1014.9 |
| 20260904120641 | 81 | 59 | 0.0 | 1.0 | 0.00 | 0.00 | 0.00 | 69 | 1014.7 |
| 20260904120137 | 81 | 53 | 0.0 | 1.0 | 0.00 | 0.00 | 0.00 | 68 | 1014.7 |
| 20260904115636 | 82 | 147 | 0.0 | 2.0 | 0.00 | 0.00 | 0.00 | 68 | 1014.9 |
| 20260904115131 | 82 | 113 | 0.0 | 1.0 | 0.00 | 0.00 | 0.00 | 67 | 1014.8 |
| 20260904114625 | 82 | 168 | 0.0 | 3.0 | 0.00 | 0.00 | 0.00 | 67 | 1014.6 |
| 20260904114120 | 81 | 245 | 0.0 | 2.0 | 0.00 | 0.00 | 0.00 | 68 | 1014.7 |
| 20260904113615 | 81 | 168 | 0.0 | 2.0 | 0.00 | 0.00 | 0.00 | 68 | 1014.7 |
| 20260904113114 | 81 | 22 | 0.0 | 1.0 | 0.00 | 0.00 | 0.00 | 69 | 1014.8 |
| 20260904112609 | 80 | 129 | 0.0 | 2.0 | 0.00 | 0.00 | 0.00 | 70 | 1014.7 |
| 20260904112105 | 80 | 80 | 0.0 | 2.0 | 0.00 | 0.00 | 0.00 | 71 | 1014.7 |
| 20260904111601 | 80 | 52 | 1.0 | 1.0 | 0.00 | 0.00 | 0.00 | 71 | 1014.9 |
| 20260904111056 | 80 | 314 | 0.0 | 1.0 | 0.00 | 0.00 | 0.00 | 71 | 1014.7 |
| 20260904110556 | 80 | 202 | 0.0 | 1.0 | 0.00 | 0.00 | 0.00 | 70 | 1014.7 |
| 20260904110051 | 80 | 75 | 0.0 | 1.0 | 0.00 | 0.00 | 0.00 | 70 | 1014.7 |
| 20260904105551 | 81 | 142 | 0.0 | 0.0 | 0.00 | 0.00 | 0.00 | 69 | 1014.6 |
| 20260904105046 | 81 | 129 | 0.0 | 0.0 | 0.00 | 0.00 | 0.00 | 68 | 1014.7 |
| 20260904104541 | 82 | 147 | 0.0 | 1.0 | 0.00 | 0.00 | 0.00 | 67 | 1014.6 |
| 20260904104037 | 81 | 55 | 0.0 | 2.0 | 0.00 | 0.00 | 0.00 | 67 | 1014.7 |
| 20260904103532 | 81 | 22 | 0.0 | 1.0 | 0.00 | 0.00 | 0.00 | 67 | 1014.5 |
| 20260904103028 | 82 | 10 | 0.0 | 1.0 | 0.00 | 0.00 | 0.00 | 67 | 1014.4 |
| 20260904102524 | 82 | 195 | 1.0 | 4.0 | 0.00 | 0.00 | 0.00 | 67 | 1014.4 |
| 20260904102019 | 80 | 57 | 0.0 | 1.0 | 0.00 | 0.00 | 0.00 | 70 | 1014.3 |
| 20260904101516 | 80 | 147 | 0.0 | 3.0 | 0.00 | 0.00 | 0.00 | 70 | 1014.4 |
| 20260904101011 | 80 | 62 | 0.0 | 1.0 | 0.00 | 0.00 | 0.00 | 70 | 1014.3 |
| 20260904100507 | 80 | 142 | 0.0 | 1.0 | 0.00 | 0.00 | 0.00 | 70 | 1014.3 |
| 20260904100007 | 80 | 104 | 0.0 | 3.0 | 0.00 | 0.00 | 0.00 | 69 | 1014.4 |
| 20260904095502 | 81 | 333 | 0.0 | 1.0 | 0.00 | 0.00 | 0.00 | 68 | 1014.4 |
| 20260904094956 | 81 | 260 | 1.0 | 2.0 | 0.00 | 0.00 | 0.00 | 69 | 1014.3 |
| 20260904094446 | 80 | 22 | 0.0 | 0.0 | 0.00 | 0.00 | 0.00 | 69 | 1014.3 |
| 20260904093941 | 80 | 135 | 0.0 | 2.0 | 0.00 | 0.00 | 0.00 | 69 | 1014.3 |
| 20260904093437 | 80 | 66 | 0.0 | 1.0 | 0.00 | 0.00 | 0.00 | 69 | 1014.2 |
| 20260904092932 | 80 | 37 | 0.0 | 1.0 | 0.00 | 0.00 | 0.00 | 69 | 1014.1 |
| 20260904092429 | 81 | 34 | 1.0 | 1.0 | 0.00 | 0.00 | 0.00 | 68 | 1014.0 |
| 20260904091919 | 81 | 29 | 0.0 | 1.0 | 0.00 | 0.00 | 0.00 | 69 | 1014.3 |
| 20260904091415 | 80 | 205 | 0.0 | 1.0 | 0.00 | 0.00 | 0.00 | 69 | 1014.3 |
| 20260904090909 | 81 | 333 | 0.0 | 1.0 | 0.00 | 0.00 | 0.00 | 69 | 1014.5 |
| 20260904090405 | 81 | 38 | 0.0 | 0.0 | 0.00 | 0.00 | 0.00 | 68 | 1014.1 |
| 20260904085900 | 81 | 96 | 1.0 | 1.0 | 0.00 | 0.00 | 0.00 | 68 | 1014.1 |
| 20260904085355 | 81 | 129 | 0.0 | 0.0 | 0.00 | 0.00 | 0.00 | 67 | 1014.2 |
| 20260904084849 | 81 | 62 | 0.0 | 0.0 | 0.00 | 0.00 | 0.00 | 67 | 1014.1 |
| 20260904084345 | 81 | 25 | 0.0 | 2.0 | 0.00 | 0.00 | 0.00 | 68 | 1014.3 |
| 20260904083840 | 81 | 164 | 0.0 | 0.0 | 0.00 | 0.00 | 0.00 | 68 | 1014.3 |
| 20260904083337 | 82 | 50 | 0.0 | 0.0 | 0.00 | 0.00 | 0.00 | 67 | 1014.1 |
| 20260904082833 | 82 | 119 | 0.0 | 0.0 | 0.00 | 0.00 | 0.00 | 66 | 1014.4 |
| 20260904082327 | 82 | 103 | 0.0 | 2.0 | 0.00 | 0.00 | 0.00 | 66 | 1014.6 |
| 20260904081822 | 83 | 89 | 0.0 | 2.0 | 0.00 | 0.00 | 0.00 | 65 | 1014.2 |
| 20260904081318 | 83 | 103 | 1.0 | 2.0 | 0.00 | 0.00 | 0.00 | 64 | 1014.3 |
| 20260904080814 | 83 | 29 | 1.0 | 2.0 | 0.00 | 0.00 | 0.00 | 63 | 1014.3 |
| 20260904080309 | 84 | 343 | 0.0 | 2.0 | 0.00 | 0.00 | 0.00 | 63 | 1014.4 |
| 20260904075806 | 84 | 129 | 0.0 | 2.0 | 0.00 | 0.00 | 0.00 | 63 | 1014.3 |
| 20260904075307 | 84 | 99 | 0.0 | 2.0 | 0.00 | 0.00 | 0.00 | 63 | 1014.5 |
| 20260904074804 | 84 | 113 | 0.0 | 0.0 | 0.00 | 0.00 | 0.00 | 62 | 1014.2 |
| 20260904074300 | 84 | 121 | 1.0 | 2.0 | 0.00 | 0.00 | 0.00 | 61 | 1014.2 |
| 20260904073755 | 84 | 242 | 0.0 | 3.0 | 0.00 | 0.00 | 0.00 | 61 | 1014.3 |
| 20260904073251 | 84 | 154 | 0.0 | 2.0 | 0.00 | 0.00 | 0.00 | 61 | 1014.2 |
| 20260904072747 | 85 | 142 | 1.0 | 5.0 | 0.00 | 0.00 | 0.00 | 60 | 1014.2 |
| 20260904072246 | 84 | 151 | 5.0 | 5.0 | 0.00 | 0.00 | 0.00 | 60 | 1014.2 |
| 20260904071742 | 85 | 120 | 0.0 | 3.0 | 0.00 | 0.00 | 0.00 | 60 | 1014.3 |
| 20260904071237 | 84 | 143 | 0.0 | 3.0 | 0.00 | 0.00 | 0.00 | 61 | 1014.2 |
| 20260904070732 | 84 | 173 | 1.0 | 3.0 | 0.00 | 0.00 | 0.00 | 62 | 1014.1 |
| 20260904070231 | 84 | 150 | 0.0 | 1.0 | 0.00 | 0.00 | 0.00 | 62 | 1014.1 |
| 20260904065726 | 84 | 108 | 1.0 | 1.0 | 0.00 | 0.00 | 0.00 | 62 | 1013.9 |
| 20260904065223 | 84 | 89 | 0.0 | 1.0 | 0.00 | 0.00 | 0.00 | 62 | 1013.9 |
| 20260904064722 | 84 | 242 | 0.0 | 0.0 | 0.00 | 0.00 | 0.00 | 62 | 1013.8 |
| 20260904064218 | 85 | 242 | 0.0 | 0.0 | 0.00 | 0.00 | 0.00 | 60 | 1013.7 |
| 20260904063714 | 86 | 242 | 0.0 | 2.0 | 0.00 | 0.00 | 0.00 | 59 | 1013.7 |
| 20260904063210 | 86 | 252 | 1.0 | 3.0 | 0.00 | 0.00 | 0.00 | 59 | 1013.8 |
| 20260904062705 | 86 | 171 | 0.0 | 2.0 | 0.00 | 0.00 | 0.00 | 59 | 1013.8 |
| 20260904062155 | 86 | 215 | 4.0 | 5.0 | 0.00 | 0.00 | 0.00 | 58 | 1013.7 |
| 20260904061650 | 86 | 195 | 0.0 | 2.0 | 0.00 | 0.00 | 0.00 | 58 | 1013.8 |
| 20260904061147 | 86 | 149 | 1.0 | 3.0 | 0.00 | 0.00 | 0.00 | 57 | 1013.7 |
| 20260904060643 | 86 | 240 | 0.0 | 4.0 | 0.00 | 0.00 | 0.00 | 57 | 1013.6 |
| 20260904060138 | 86 | 158 | 2.0 | 4.0 | 0.00 | 0.00 | 0.00 | 57 | 1013.7 |
| 20260904055633 | 87 | 247 | 0.0 | 5.0 | 0.00 | 0.00 | 0.00 | 56 | 1013.6 |
| 20260904055128 | 87 | 205 | 1.0 | 9.0 | 0.00 | 0.00 | 0.00 | 56 | 1013.5 |
| 20260904054624 | 86 | 215 | 1.0 | 3.0 | 0.00 | 0.00 | 0.00 | 56 | 1013.6 |
| 20260904054120 | 86 | 195 | 0.0 | 2.0 | 0.00 | 0.00 | 0.00 | 56 | 1013.5 |
| 20260904053620 | 86 | 206 | 3.0 | 4.0 | 0.00 | 0.00 | 0.00 | 56 | 1013.8 |
| 20260904053114 | 86 | 147 | 1.0 | 3.0 | 0.00 | 0.00 | 0.00 | 55 | 1013.5 |
| 20260904052611 | 86 | 134 | 0.0 | 3.0 | 0.00 | 0.00 | 0.00 | 54 | 1013.5 |
| 20260904052107 | 86 | 184 | 0.0 | 2.0 | 0.00 | 0.00 | 0.00 | 54 | 1013.5 |
| 20260904051603 | 86 | 188 | 1.0 | 2.0 | 0.00 | 0.00 | 0.00 | 54 | 1013.5 |
| 20260904051102 | 86 | 154 | 0.0 | 2.0 | 0.00 | 0.00 | 0.00 | 54 | 1013.6 |
| 20260904050558 | 87 | 217 | 0.0 | 2.0 | 0.00 | 0.00 | 0.00 | 53 | 1013.4 |
| 20260904050054 | 87 | 233 | 1.0 | 3.0 | 0.00 | 0.00 | 0.00 | 52 | 1013.6 |
| 20260904045549 | 87 | 236 | 2.0 | 3.0 | 0.00 | 0.00 | 0.00 | 52 | 1013.5 |
| 20260904045043 | 87 | 207 | 1.0 | 2.0 | 0.00 | 0.00 | 0.00 | 52 | 1013.4 |
| 20260904044539 | 87 | 237 | 2.0 | 3.0 | 0.00 | 0.00 | 0.00 | 52 | 1013.5 |
| 20260904044036 | 87 | 165 | 1.0 | 3.0 | 0.00 | 0.00 | 0.00 | 51 | 1013.5 |
| 20260904043532 | 87 | 208 | 0.0 | 4.0 | 0.00 | 0.00 | 0.00 | 51 | 1013.5 |
| 20260904043027 | 87 | 173 | 1.0 | 3.0 | 0.00 | 0.00 | 0.00 | 50 | 1013.5 |
| 20260904042524 | 88 | 185 | 0.0 | 3.0 | 0.00 | 0.00 | 0.00 | 50 | 1013.5 |
| 20260904042019 | 88 | 198 | 1.0 | 4.0 | 0.00 | 0.00 | 0.00 | 49 | 1013.5 |
| 20260904041514 | 88 | 254 | 1.0 | 2.0 | 0.00 | 0.00 | 0.00 | 49 | 1013.3 |
| 20260904041010 | 88 | 210 | 2.0 | 4.0 | 0.00 | 0.00 | 0.00 | 48 | 1013.5 |
| 20260904040505 | 88 | 206 | 1.0 | 3.0 | 0.00 | 0.00 | 0.00 | 48 | 1013.1 |
| 20260904040001 | 89 | 210 | 0.0 | 4.0 | 0.00 | 0.00 | 0.00 | 48 | 1013.2 |
| 20260904035457 | 89 | 203 | 2.0 | 6.0 | 0.00 | 0.00 | 0.00 | 47 | 1013.1 |
| 20260904034956 | 89 | 156 | 1.0 | 3.0 | 0.00 | 0.00 | 0.00 | 47 | 1013.2 |
| 20260904034451 | 89 | 209 | 0.0 | 9.0 | 0.00 | 0.00 | 0.00 | 46 | 1013.1 |
| 20260904033947 | 89 | 212 | 0.0 | 3.0 | 0.00 | 0.00 | 0.00 | 47 | 1012.6 |
| 20260904033443 | 90 | 182 | 0.0 | 7.0 | 0.00 | 0.00 | 0.00 | 46 | 1012.8 |
| 20260904032939 | 90 | 238 | 2.0 | 4.0 | 0.00 | 0.00 | 0.00 | 45 | 1012.7 |
| 20260904032434 | 90 | 247 | 3.0 | 5.0 | 0.00 | 0.00 | 0.00 | 44 | 1012.5 |
| 20260904031928 | 90 | 259 | 1.0 | 2.0 | 0.00 | 0.00 | 0.00 | 45 | 1012.6 |
| 20260904031423 | 91 | 254 | 2.0 | 4.0 | 0.00 | 0.00 | 0.00 | 44 | 1012.5 |
| 20260904030919 | 90 | 250 | 2.0 | 3.0 | 0.00 | 0.00 | 0.00 | 44 | 1012.3 |
| 20260904030419 | 90 | 269 | 0.0 | 2.0 | 0.00 | 0.00 | 0.00 | 45 | 1012.0 |
| 20260904025915 | 90 | 104 | 0.0 | 0.0 | 0.00 | 0.00 | 0.00 | 45 | 1012.2 |
| 20260904025411 | 91 | 236 | 1.0 | 6.0 | 0.00 | 0.00 | 0.00 | 44 | 1012.1 |
| 20260904024911 | 91 | 154 | 1.0 | 4.0 | 0.00 | 0.00 | 0.00 | 44 | 1012.2 |
| 20260904024411 | 90 | 161 | 3.0 | 5.0 | 0.00 | 0.00 | 0.00 | 45 | 1012.1 |
| 20260904023907 | 90 | 163 | 3.0 | 6.0 | 0.00 | 0.00 | 0.00 | 45 | 1012.1 |
| 20260904023403 | 90 | 136 | 2.0 | 7.0 | 0.00 | 0.00 | 0.00 | 46 | 1012.0 |
| 20260904022901 | 90 | 161 | 2.0 | 5.0 | 0.00 | 0.00 | 0.00 | 46 | 1012.0 |
| 20260904022359 | 90 | 140 | 4.0 | 7.0 | 0.00 | 0.00 | 0.00 | 47 | 1011.9 |
| 20260904021855 | 90 | 206 | 1.0 | 8.0 | 0.00 | 0.00 | 0.00 | 48 | 1011.8 |
| 20260904021350 | 90 | 202 | 1.0 | 8.0 | 0.00 | 0.00 | 0.00 | 47 | 1011.9 |
| 20260904020846 | 90 | 148 | 0.0 | 7.0 | 0.00 | 0.00 | 0.00 | 48 | 1011.8 |
| 20260904020341 | 90 | 182 | 3.0 | 5.0 | 0.00 | 0.00 | 0.00 | 47 | 1011.8 |
| 20260904015839 | 91 | 193 | 0.0 | 7.0 | 0.00 | 0.00 | 0.00 | 47 | 1011.7 |
| 20260904015335 | 91 | 121 | 2.0 | 9.0 | 0.00 | 0.00 | 0.00 | 46 | 1012.1 |
| 20260904014833 | 93 | 155 | 3.0 | 10.0 | 0.00 | 0.00 | 0.00 | 42 | 1011.7 |
| 20260904014328 | 93 | 180 | 2.0 | 11.0 | 0.00 | 0.00 | 0.00 | 40 | 1011.8 |
| 20260904013824 | 93 | 177 | 3.0 | 8.0 | 0.00 | 0.00 | 0.00 | 41 | 1011.7 |
| 20260904013320 | 93 | 185 | 0.0 | 11.0 | 0.00 | 0.00 | 0.00 | 42 | 1011.7 |
| 20260904012817 | 93 | 132 | 2.0 | 5.0 | 0.00 | 0.00 | 0.00 | 42 | 1012.0 |
| 20260904012317 | 92 | 256 | 1.0 | 10.0 | 0.00 | 0.00 | 0.00 | 44 | 1011.8 |
| 20260904011815 | 92 | 164 | 3.0 | 12.0 | 0.00 | 0.00 | 0.00 | 44 | 1011.8 |
| 20260904011311 | 93 | 198 | 4.0 | 13.0 | 0.00 | 0.00 | 0.00 | 43 | 1011.7 |
| 20260904010805 | 93 | 174 | 4.0 | 11.0 | 0.00 | 0.00 | 0.00 | 43 | 1011.6 |
| 20260904010302 | 93 | 212 | 4.0 | 13.0 | 0.00 | 0.00 | 0.00 | 42 | 1011.8 |
| 20260904005757 | 98 | 172 | 8.0 | 14.0 | 0.00 | 0.00 | 0.00 | 37 | 1011.6 |
| 20260904005253 | 99 | 220 | 1.0 | 5.0 | 0.00 | 0.00 | 0.00 | 35 | 1011.5 |
| 20260904004748 | 98 | 222 | 0.0 | 3.0 | 0.00 | 0.00 | 0.00 | 36 | 1011.6 |
| 20260904004244 | 98 | 145 | 1.0 | 6.0 | 0.00 | 0.00 | 0.00 | 34 | 1011.6 |
| 20260904003738 | 98 | 233 | 0.0 | 2.0 | 0.00 | 0.00 | 0.00 | 36 | 1011.5 |
| 20260904003235 | 97 | 110 | 0.0 | 3.0 | 0.00 | 0.00 | 0.00 | 37 | 1011.4 |
| 20260904002730 | 97 | 220 | 2.0 | 3.0 | 0.00 | 0.00 | 0.00 | 36 | 1011.6 |
| 20260904002227 | 97 | 185 | 1.0 | 4.0 | 0.00 | 0.00 | 0.00 | 35 | 1011.3 |
| 20260904001721 | 97 | 135 | 0.0 | 3.0 | 0.00 | 0.00 | 0.00 | 35 | 1011.3 |
| 20260904001220 | 98 | 160 | 3.0 | 5.0 | 0.00 | 0.00 | 0.00 | 35 | 1011.6 |
| 20260904000715 | 99 | 135 | 0.0 | 7.0 | 0.00 | 0.00 | 0.00 | 36 | 1011.5 |
| 20260904000211 | 100 | 214 | 1.0 | 5.0 | 0.00 | 0.00 | 0.00 | 34 | 1011.5 |
| 20260903235709 | 100 | 129 | 0.0 | 2.0 | 0.00 | 0.00 | 0.00 | 34 | 1011.7 |
| 20260903235206 | 99 | 169 | 2.0 | 3.0 | 0.00 | 0.00 | 0.00 | 33 | 1011.6 |
| 20260903234700 | 100 | 247 | 0.0 | 3.0 | 0.00 | 0.00 | 0.00 | 32 | 1011.6 |
| 20260903234156 | 101 | 258 | 3.0 | 6.0 | 0.00 | 0.00 | 0.00 | 32 | 1011.8 |
| 20260903233646 | 103 | 230 | 2.0 | 4.0 | 0.00 | 0.00 | 0.00 | 33 | 1011.7 |
| 20260903233142 | 102 | 295 | 2.0 | 3.0 | 0.00 | 0.00 | 0.00 | 33 | 1011.7 |
| 20260903232635 | 101 | 186 | 3.0 | 4.0 | 0.00 | 0.00 | 0.00 | 31 | 1011.8 |
| 20260903232132 | 100 | 156 | 4.0 | 6.0 | 0.00 | 0.00 | 0.00 | 32 | 1011.7 |
| 20260903231631 | 100 | 258 | 3.0 | 8.0 | 0.00 | 0.00 | 0.00 | 33 | 1012.0 |
| 20260903231126 | 101 | 160 | 4.0 | 6.0 | 0.00 | 0.00 | 0.00 | 31 | 1011.7 |
| 20260903230622 | 100 | 301 | 2.0 | 5.0 | 0.00 | 0.00 | 0.00 | 32 | 1012.1 |
| 20260903230121 | 100 | 235 | 4.0 | 7.0 | 0.00 | 0.00 | 0.00 | 32 | 1012.1 |
| 20260903225618 | 101 | 251 | 1.0 | 3.0 | 0.00 | 0.00 | 0.00 | 32 | 1012.1 |
| 20260903225114 | 100 | 227 | 4.0 | 7.0 | 0.00 | 0.00 | 0.00 | 31 | 1012.2 |
| 20260903224610 | 100 | 233 | 2.0 | 3.0 | 0.00 | 0.00 | 0.00 | 34 | 1012.2 |
| 20260903224106 | 98 | 187 | 0.0 | 5.0 | 0.00 | 0.00 | 0.00 | 33 | 1012.0 |
| 20260903223601 | 100 | 215 | 2.0 | 5.0 | 0.00 | 0.00 | 0.00 | 33 | 1012.1 |
| 20260903223059 | 101 | 218 | 2.0 | 5.0 | 0.00 | 0.00 | 0.00 | 34 | 1012.2 |
| 20260903222554 | 101 | 217 | 4.0 | 5.0 | 0.00 | 0.00 | 0.00 | 31 | 1012.5 |
| 20260903222053 | 100 | 233 | 3.0 | 6.0 | 0.00 | 0.00 | 0.00 | 31 | 1012.5 |
| 20260903221549 | 100 | 342 | 2.0 | 3.0 | 0.00 | 0.00 | 0.00 | 31 | 1012.5 |
| 20260903221047 | 98 | 216 | 3.0 | 8.0 | 0.00 | 0.00 | 0.00 | 35 | 1012.3 |
| 20260903220546 | 100 | 101 | 3.0 | 3.0 | 0.00 | 0.00 | 0.00 | 32 | 1012.6 |
| 20260903220045 | 100 | 218 | 2.0 | 5.0 | 0.00 | 0.00 | 0.00 | 35 | 1012.5 |
| 20260903215545 | 99 | 249 | 2.0 | 4.0 | 0.00 | 0.00 | 0.00 | 32 | 1013.0 |
| 20260903215044 | 98 | 180 | 4.0 | 9.0 | 0.00 | 0.00 | 0.00 | 33 | 1012.6 |
| 20260903214544 | 100 | 169 | 3.0 | 8.0 | 0.00 | 0.00 | 0.00 | 34 | 1013.0 |
| 20260903214039 | 99 | 147 | 9.0 | 11.0 | 0.00 | 0.00 | 0.00 | 33 | 1013.1 |
| 20260903213534 | 99 | 184 | 4.0 | 7.0 | 0.00 | 0.00 | 0.00 | 34 | 1013.1 |
| 20260903213030 | 98 | 315 | 2.0 | 4.0 | 0.00 | 0.00 | 0.00 | 33 | 1013.3 |
| 20260903212526 | 99 | 223 | 2.0 | 4.0 | 0.00 | 0.00 | 0.00 | 36 | 1013.5 |
| 20260903212021 | 98 | 224 | 0.0 | 5.0 | 0.00 | 0.00 | 0.00 | 33 | 1013.5 |
| 20260903211516 | 100 | 191 | 1.0 | 9.0 | 0.00 | 0.00 | 0.00 | 34 | 1013.5 |
| 20260903211013 | 100 | 59 | 0.0 | 9.0 | 0.00 | 0.00 | 0.00 | 35 | 1013.7 |
| 20260903210512 | 100 | 166 | 4.0 | 7.0 | 0.00 | 0.00 | 0.00 | 34 | 1013.8 |
| 20260903210008 | 99 | 195 | 1.0 | 7.0 | 0.00 | 0.00 | 0.00 | 34 | 1013.8 |
| 20260903205502 | 98 | 231 | 5.0 | 8.0 | 0.00 | 0.00 | 0.00 | 34 | 1014.0 |
| 20260903204956 | 99 | 162 | 5.0 | 8.0 | 0.00 | 0.00 | 0.00 | 33 | 1014.0 |
| 20260903204453 | 99 | 319 | 2.0 | 3.0 | 0.00 | 0.00 | 0.00 | 32 | 1014.0 |
| 20260903203948 | 98 | 199 | 4.0 | 6.0 | 0.00 | 0.00 | 0.00 | 35 | 1014.4 |
| 20260903203444 | 98 | 223 | 1.0 | 7.0 | 0.00 | 0.00 | 0.00 | 35 | 1014.5 |
| 20260903202943 | 98 | 224 | 8.0 | 10.0 | 0.00 | 0.00 | 0.00 | 34 | 1014.3 |
| 20260903202439 | 96 | 222 | 3.0 | 7.0 | 0.00 | 0.00 | 0.00 | 36 | 1014.2 |
| 20260903201939 | 97 | 215 | 2.0 | 5.0 | 0.00 | 0.00 | 0.00 | 38 | 1014.4 |
| 20260903201434 | 97 | 256 | 6.0 | 7.0 | 0.00 | 0.00 | 0.00 | 34 | 1014.7 |
| 20260903200933 | 96 | 235 | 2.0 | 10.0 | 0.00 | 0.00 | 0.00 | 37 | 1014.6 |
| 20260903200428 | 97 | 219 | 4.0 | 13.0 | 0.00 | 0.00 | 0.00 | 40 | 1014.5 |
| 20260903195923 | 96 | 185 | 1.0 | 5.0 | 0.00 | 0.00 | 0.00 | 39 | 1014.6 |
| 20260903195420 | 97 | 212 | 3.0 | 9.0 | 0.00 | 0.00 | 0.00 | 38 | 1014.7 |
| 20260903194920 | 98 | 145 | 1.0 | 3.0 | 0.00 | 0.00 | 0.00 | 37 | 1014.9 |
| 20260903194415 | 96 | 182 | 1.0 | 5.0 | 0.00 | 0.00 | 0.00 | 37 | 1014.8 |
| 20260903193910 | 97 | 199 | 3.0 | 5.0 | 0.00 | 0.00 | 0.00 | 37 | 1015.0 |
| 20260903193407 | 96 | 236 | 3.0 | 10.0 | 0.00 | 0.00 | 0.00 | 36 | 1015.2 |
| 20260903192901 | 97 | 215 | 3.0 | 7.0 | 0.00 | 0.00 | 0.00 | 37 | 1015.2 |
| 20260903192358 | 96 | 194 | 2.0 | 6.0 | 0.00 | 0.00 | 0.00 | 43 | 1015.3 |
| 20260903191854 | 97 | 86 | 3.0 | 10.0 | 0.00 | 0.00 | 0.00 | 36 | 1015.2 |
| 20260903191350 | 95 | 290 | 3.0 | 7.0 | 0.00 | 0.00 | 0.00 | 36 | 1015.2 |
| 20260903190849 | 96 | 180 | 2.0 | 6.0 | 0.00 | 0.00 | 0.00 | 41 | 1015.3 |
| 20260903190344 | 96 | 336 | 0.0 | 7.0 | 0.00 | 0.00 | 0.00 | 39 | 1015.5 |
| 20260903185843 | 96 | 217 | 4.0 | 9.0 | 0.00 | 0.00 | 0.00 | 40 | 1015.7 |
| 20260903185338 | 95 | 197 | 5.0 | 9.0 | 0.00 | 0.00 | 0.00 | 41 | 1015.7 |
| 20260903184834 | 95 | 218 | 3.0 | 9.0 | 0.00 | 0.00 | 0.00 | 39 | 1015.8 |
| 20260903184325 | 95 | 218 | 0.0 | 6.0 | 0.00 | 0.00 | 0.00 | 39 | 1016.0 |
| 20260903183819 | 95 | 231 | 6.0 | 11.0 | 0.00 | 0.00 | 0.00 | 40 | 1016.3 |
| 20260903183315 | 95 | 234 | 3.0 | 8.0 | 0.00 | 0.00 | 0.00 | 41 | 1016.1 |
| 20260903182813 | 96 | 219 | 4.0 | 9.0 | 0.00 | 0.00 | 0.00 | 39 | 1016.3 |
| 20260903182307 | 96 | 188 | 3.0 | 8.0 | 0.00 | 0.00 | 0.00 | 39 | 1016.3 |
| 20260903181807 | 96 | 71 | 2.0 | 3.0 | 0.00 | 0.00 | 0.00 | 39 | 1016.3 |